Reflectivity
-20 -20 -20 -20 -20 -20 -20 -20 -20 -20 -20 -20 -20 -20 -20 -20 -20 -20 -20 -20 -20 -20 -20 -20 -20 -20 -20 -20 12 -20 -20 -10 -20 -20 -20 -3 -20 -20 -20 -20 -20 -20 -20
-20 -20 -20 -20 -20 -20 -20 -20 -20 -20 -20 -20 -20 -20 -20 -20 -20 -20 -20 -20 -20 -20 -20 -20 -20 -20 -20 -17 -20 -20 -20 -20 -20 -20 -20 -20 -20 -20 -20 -20 -15 -20 -20
-20 -20 -20 -20 -20 -20 -20 -20 -20 -20 -20 -20 -20 -20 -20 -20 -20 -20 -20 -20 -20 -20 -20 -20 -20 -20 -20 -20 -20 -20 -20 -20 -20 -20 -20 -20 -17 -20 -20 -19 -20 -16 -15
-20 -20 -20 -20 -20 -20 -20 -20 -20 -20 -20 -20 -20 -20 -20 -20 -20 -20 -20 -20 -20 -20 -20 -20 -20 -20 -20 -20 -20 -20 -20 -20 -20 -20 -20 -20 -20 2 -2 -20 -20 -20 -17
-20 -20 -20 -20 -20 -20 -20 -20 -20 -20 -20 -20 -20 -20 -20 -20 -20 -20 -20 -20 -20 -20 -20 -20 -20 -20 -20 -20 -20 -20 -20 -20 -20 -20 -20 -20 -20 -20 -20 -20 -20 -20 -20
-20 -20 -20 -20 -20 -20 -20 -20 -20 -20 -20 -20 -20 -20 -20 -20 -20 -20 -20 -20 -20 -20 -20 -20 -20 -20 -20 -20 -20 -20 -20 -20 -20 -20 -20 -20 -20 -20 -20 -20 -20 -20 -20
-20 -20 -20 -20 -20 -20 -20 -20 -20 -20 -20 -20 -20 -20 -20 -20 -20 -20 -20 -20 -20 -20 -20 -20 -20 -20 -20 -20 -20 -20 -20 -20 -20 -20 -20 -20 -20 -20 -20 -20 -20 -20 -20
-20 -20 -20 -20 -20 -20 -20 -20 -20 -20 -20 -20 -20 -20 -20 -20 -20 -20 -20 -20 -20 -20 -20 -20 -20 -20 -20 -20 -20 -20 -20 -20 -20 -20 -18 -20 -20 -20 -20 -20 -20 -20 -20
-20 -20 -20 -20 -20 -20 -20 -20 -20 -20 -20 -20 -20 -20 -20 -20 -20 -20 -20 -20 -20 -20 -20 -20 -20 -20 -20 -20 -20 -20 -20 -20 -20 -20 -20 -20 -20 -20 -20 -20 -20 -20 -20
-20 -20 -20 -20 -20 -20 -20 -20 -20 -20 -20 -20 -20 -20 -20 -20 -20 -20 -20 -20 -20 -20 -20 -20 -20 -20 -20 -20 -20 -20 -20 -20 -20 -20 -20 -20 -20 -20 -20 -20 -20 -20 -20
-20 -20 -20 -20 -20 -20 -20 -20 -20 -20 -20 -20 -20 -20 -20 -20 -20 -20 -20 -20 -20 -20 -20 -20 -20 -20 -20 -20 -20 -20 -20 -20 -20 -20 -20 -20 -20 -20 -20 -20 -20 -20 -20
-20 -20 -20 -20 -20 -20 -20 -20 -20 -20 -20 -20 -20 -20 -20 -20 -20 -20 -20 -20 -20 -20 -20 -20 -20 -20 -20 -20 -20 -20 -20 -20 -20 -20 -20 -20 -20 -20 -20 -20 -20 -20 -20
-20 -20 -20 -20 -20 -20 -20 -20 -20 -20 -20 -20 -20 -20 -20 -20 -20 -20 -20 -20 -20 -20 -20 -20 -20 -20 -20 -20 -20 -20 -20 -20 -20 -20 -20 -20 -20 -20 -20 -20 -20 -20 -20
-20 -20 -20 -20 -2 -19 35 -5 -19 -20 -20 -20 -20 -20 -20 -20 -20 -20 -20 -20 -20 -20 -20 -20 -20 -20 -20 -20 -20 -20 -20 -20 -20 -20 -20 -20 -20 -20 -20 -20 -20 -20 -20
-20 -20 -20 -20 -20 -20 -20 23 17 -11 -17 -20 -20 -20 -20 -20 -20 -20 -20 -20 -20 -20 -20 -20 -20 -20 -20 -20 -20 -20 -3 -20 -20 -20 -20 -20 -20 -20 -20 -20 -20 -20 -20
-20 -20 -20 -20 -20 -20 -20 -7 11 28 -9 -16 -19 -20 -20 -20 -20 -20 -20 -20 -20 -20 -20 -20 -20 -20 -20 -20 -20 -20 -12 -15 -20 -20 -20 -20 -20 4 -17 -4 -20 -20 -20
-20 -20 -20 -20 -20 -20 -20 -20 -20 35 -9 28 1 -16 -20 -20 -20 -20 -20 -20 -20 -20 -20 -20 -20 -8 -20 -20 -20 -20 -20 19 -20 -20 -20 -20 -3 9 -12 -20 -20 -20 -20
-20 -20 -20 -20 -20 -20 -20 -20 -20 -15 39 1 34 -4 -10 -19 -20 -20 -20 -20 -20 -20 -20 -20 -2 3 -20 -20 -20 -20 -20 -13 -20 -20 -1 -13 2 10 14 16 -20 -20 -20
-20 -20 -20 -20 -20 -20 -20 -20 -20 -20 -20 2 8 21 10 -17 -7 -20 -20 -20 -20 -20 -20 -20 -20 -11 -20 -20 -20 -20 -20 -20 -20 -2 -17 -20 -13 -12 -4 6 2 -20 -20
-20 -20 -20 -20 -20 -20 -20 -20 -20 -20 -20 -20 28 6 19 12 -12 10 -15 -20 -20 -20 -20 -20 -20 -20 -20 -20 6 -0 -20 -20 -20 -20 -20 7 -20 -20 -20 -15 -14 -10 -20
-20 -20 -20 -20 -20 -20 -20 -20 -20 -20 -20 -20 -20 30 35 36 7 6 6 -20 -20 -20 -20 -20 -20 -20 -20 -20 -20 -20 -20 -20 -20 -20 -20 -20 -20 -20 -20 -16 2 -20 -20
-20 -20 -20 -20 -20 -20 -20 -20 -20 -20 -20 -20 -20 -20 29 39 32 11 -2 -8 -20 -20 -20 3 5 -20 -20 -20 -20 -20 -20 -20 -20 -20 -20 -20 -20 -20 -20 -20 -20 -20 -20
-20 -20 -20 -20 -20 -20 -20 -20 -20 -18 -20 -20 -20 -20 -15 27 35 -10 -20 -20 -20 -20 -19 -20 -20 -15 -16 -16 -20 -20 -20 -20 -20 -20 -20 -20 -20 -20 -20 -20 -20 -20 -20
-20 -20 -20 -20 -20 -20 -20 -20 -16 -17 -20 -20 -20 -12 -20 31 35 16 -19 -20 -20 -20 -20 -20 -20 -20 -20 -20 -20 -20 -20 -20 -20 -20 -20 -20 -20 -20 -20 -20 -20 -20 -20
-20 -20 -20 -20 -20 -20 -20 -16 -20 -5 8 -20 -15 -19 -14 -17 12 34 16 -15 -20 -20 -20 -20 -20 -20 -20 -17 -20 -20 -20 -20 -20 -20 -20 -20 -20 -20 -20 -20 -20 -20 -20
-9 -20 -20 -20 -20 -20 -20 1 -20 8 0 -2 -10 -19 -19 25 12 34 31 11 -9 -14 -20 -20 -20 -20 -16 -20 -20 -20 -20 -20 -20 -20 -20 -20 -20 -20 -15 -20 -20 -20 -20
Wind_Speed
5 4 10 12 12 13 13 13 15 14 13 12 11 10 11 11 12 13 13 13 13 12 12 10 8 6 5 8 9 10 11 12 10 12 13 13 14 14 12 9 11 11 12
12 8 7 11 12 12 12 13 13 15 14 13 12 10 11 11 10 11 12 11 11 11 10 8 7 6 5 7 8 9 10 11 10 12 12 11 11 12 9 8 11 10 13
12 9 10 11 12 12 12 13 13 14 15 14 12 12 11 11 11 10 10 10 10 10 9 7 6 6 8 7 6 8 9 9 9 11 10 5 5 9 7 12 11 12 12
12 11 7 9 12 12 11 12 13 13 15 14 12 12 12 11 10 10 10 10 9 9 8 8 7 7 7 7 6 6 8 7 7 9 4 5 7 8 12 12 12 12 10
12 11 10 9 10 11 11 12 13 14 14 14 13 12 12 12 11 10 10 10 9 9 8 7 8 7 7 8 7 7 6 7 5 6 4 3 3 9 12 12 11 12 12
12 10 12 11 9 10 10 11 12 13 13 14 14 13 12 13 12 11 10 9 8 9 8 10 7 8 8 7 7 6 6 5 2 4 4 5 4 12 13 11 12 12 13
8 7 7 13 10 9 8 8 10 11 11 12 13 14 13 13 12 12 11 9 9 9 9 10 8 8 8 7 6 5 5 3 2 3 4 5 7 14 16 17 16 15 14
10 7 7 7 8 10 9 9 9 10 12 12 13 13 14 13 12 12 11 10 10 9 9 9 9 8 8 7 6 5 5 4 2 4 5 5 11 15 17 17 16 15 14
8 8 6 5 7 6 9 8 8 10 11 12 13 13 13 12 12 12 12 11 11 11 10 9 8 8 8 7 5 5 6 4 2 4 7 5 14 15 17 17 16 15 15
7 6 8 9 7 5 5 8 8 8 9 10 11 12 12 11 11 12 11 10 11 11 10 10 9 8 8 8 7 5 4 2 2 6 5 5 15 16 17 17 16 15 14
5 4 6 7 8 9 6 5 7 8 8 9 9 10 10 6 7 9 9 11 10 10 11 10 10 10 8 8 8 6 2 2 3 4 4 13 14 17 16 15 14 11 10
12 7 5 5 7 9 7 6 6 5 4 5 6 9 5 6 7 9 9 12 11 10 10 11 10 9 7 4 3 6 3 3 3 4 4 15 15 17 16 16 12 11 9
6 5 5 8 5 7 9 7 4 3 4 5 7 7 7 7 7 6 5 5 5 8 4 5 6 4 5 4 4 4 4 2 3 4 5 12 18 18 17 16 13 12 10
10 9 3 5 7 7 5 5 8 8 7 6 7 9 7 5 6 7 5 7 7 5 6 5 4 5 6 6 6 5 5 4 4 3 8 11 13 16 17 17 15 15 13
22 23 25 16 8 8 9 9 8 9 9 11 10 10 8 7 7 7 6 7 7 7 6 6 6 7 8 7 6 6 6 5 5 3 5 13 14 14 18 19 18 17 15
20 22 23 22 21 16 16 12 8 9 10 10 10 11 13 9 6 8 7 8 8 8 6 7 7 6 6 5 6 6 6 6 8 8 5 8 13 14 17 19 19 18 17
17 19 21 22 20 22 16 12 14 8 10 10 11 14 15 13 10 10 8 8 9 8 9 6 5 6 4 4 7 6 5 5 8 7 8 7 9 13 14 14 16 17 17
20 21 21 19 20 19 20 15 11 12 9 9 10 11 18 15 14 9 10 8 9 8 9 8 5 4 7 5 4 5 4 4 5 7 7 7 7 8 9 12 13 16 17
19 21 22 21 20 20 18 15 14 14 13 10 9 10 16 16 13 11 10 9 10 8 7 9 4 5 4 3 4 4 4 4 4 4 9 10 10 9 8 14 13 14 15
19 19 19 18 20 19 13 13 12 11 11 12 10 7 10 13 15 11 8 10 10 8 8 7 7 4 4 5 4 4 5 5 5 4 5 6 7 9 8 9 10 10 15
18 21 19 21 21 16 13 12 12 12 13 12 12 17 9 13 15 14 7 8 12 11 10 11 5 7 3 4 4 0 2 4 5 5 5 5 7 10 10 10 8 7 8
19 20 20 20 19 16 11 11 9 10 12 12 11 15 16 24 16 16 13 9 11 10 9 9 9 4 3 5 4 3 2 3 4 6 5 7 8 5 8 9 10 10 9
20 22 20 19 19 17 17 11 10 10 11 11 10 10 14 20 19 18 17 11 10 9 9 10 11 11 8 4 6 6 3 5 2 4 11 9 9 7 6 8 9 11 9
19 20 19 19 19 16 17 12 14 11 14 12 13 12 14 19 17 20 18 16 15 11 12 9 9 10 7 9 2 6 3 4 4 2 3 7 6 7 8 7 9 10 11
19 19 19 19 19 19 17 13 11 14 10 12 13 17 15 16 20 18 19 18 15 12 12 13 10 11 10 8 8 3 8 4 4 2 4 4 3 6 8 8 7 8 11
17 19 19 18 18 18 19 15 14 16 14 13 15 13 4 7 12 19 20 18 12 12 12 12 12 14 12 10 9 7 7 9 11 6 6 5 6 4 7 6 6 7 8
Wind_Direction
118 133 138 131 128 131 135 136 133 128 125 119 113 108 106 100 102 101 98 96 98 101 107 109 104 92 85 84 79 78 85 91 104 97 102 107 110 110 108 111 106 106 113
135 150 151 135 129 130 138 139 138 134 131 128 124 117 113 107 98 99 103 102 105 108 108 108 107 92 92 82 74 86 97 100 106 110 106 95 103 111 113 111 115 123 120
141 147 155 140 131 133 139 138 138 138 135 134 134 131 125 120 117 112 109 110 109 110 111 120 107 94 102 91 84 97 100 106 115 120 119 120 103 115 132 124 125 122 111
143 143 138 141 132 132 137 138 140 143 139 139 141 138 135 131 130 130 129 125 119 116 117 124 110 100 107 98 95 102 111 111 116 95 115 92 119 107 116 118 117 111 114
146 143 137 135 124 129 139 146 147 146 147 144 146 146 146 144 141 141 141 137 134 129 126 126 114 108 112 113 113 112 113 117 137 143 124 112 106 115 112 109 111 109 103
132 128 138 131 131 137 147 155 153 150 153 151 153 154 155 152 150 150 150 147 141 138 138 125 118 118 119 119 125 120 116 118 147 118 125 132 108 117 120 110 103 99 99
71 94 134 136 137 138 143 158 156 158 156 160 159 159 160 159 156 156 157 155 147 147 141 128 133 131 130 133 129 128 117 118 60 310 158 134 123 127 117 110 110 111 108
111 113 123 118 137 150 159 167 168 164 164 167 168 165 163 162 159 161 160 160 156 152 138 138 145 145 143 146 146 143 112 86 56 148 107 117 132 131 132 127 121 122 124
122 127 132 138 150 168 164 169 174 172 175 176 174 169 165 163 162 164 163 166 162 154 150 150 155 157 158 156 167 168 139 141 104 126 130 125 134 141 139 139 139 142 142
130 152 160 163 159 176 181 174 182 180 181 185 178 172 165 165 166 167 168 173 168 160 159 159 164 170 171 169 172 200 173 151 160 140 129 150 145 147 149 152 154 157 162
350 199 169 169 173 165 189 192 187 187 186 184 181 171 157 166 169 172 173 174 176 166 163 169 171 172 172 185 180 196 201 181 126 139 153 153 153 154 159 159 160 166 164
353 346 272 181 188 173 173 177 188 190 178 187 185 178 177 171 176 177 176 178 176 173 170 169 172 181 165 186 206 197 199 194 125 162 157 158 165 164 167 164 164 159 175
313 3 328 290 208 209 188 167 179 180 182 193 194 182 186 183 183 185 176 176 167 172 172 172 169 180 189 202 205 202 203 196 167 170 161 163 155 162 165 167 171 180 182
335 323 33 346 277 219 239 183 180 184 188 188 199 189 191 195 188 188 177 170 168 171 178 178 179 193 203 211 209 207 197 182 163 151 169 174 166 173 175 178 181 180 167
10 360 354 346 337 302 249 241 189 201 191 194 191 192 190 201 198 184 172 171 174 169 185 187 190 195 207 204 199 195 203 188 151 143 165 181 179 187 178 179 180 181 183
1 355 347 352 355 351 343 288 228 196 205 194 191 190 191 197 195 190 171 176 177 172 186 191 192 198 210 192 202 186 201 189 168 159 174 187 195 188 186 181 187 197 199
355 349 349 343 345 343 337 340 325 230 192 201 197 189 189 192 197 189 181 177 184 175 177 180 195 194 198 199 199 183 191 210 160 169 171 184 192 195 191 195 197 197 201
353 350 343 341 341 344 341 335 331 331 278 199 213 197 191 192 194 186 188 191 179 176 179 187 177 199 189 183 192 192 193 186 188 162 176 172 187 199 208 204 200 200 203
351 345 340 338 336 335 337 325 327 320 314 257 206 192 192 192 193 187 188 188 179 184 177 191 181 163 187 192 195 193 191 193 217 170 181 186 184 193 198 213 202 206 209
348 343 334 333 331 332 330 326 318 326 326 320 252 207 193 190 190 196 183 182 186 184 186 178 177 179 170 177 193 192 205 202 197 209 193 189 187 190 193 203 215 218 212
344 338 335 330 330 329 328 325 325 317 312 310 322 257 243 213 190 198 189 176 185 189 183 176 156 174 175 161 121 208 257 234 219 208 199 212 191 199 195 199 194 195 207
336 331 330 326 322 318 313 308 297 296 298 300 293 292 216 231 198 199 195 187 180 179 165 170 174 140 164 169 149 119 186 306 245 218 210 211 218 204 201 190 194 195 195
337 331 328 319 316 311 306 307 300 297 290 295 289 292 258 225 199 191 198 193 182 179 177 183 183 175 187 195 178 147 158 215 189 224 223 216 211 204 210 210 192 198 194
335 328 321 321 315 312 306 310 302 292 285 287 287 282 279 252 202 192 191 190 193 189 192 177 185 187 166 203 178 197 182 157 189 260 265 210 201 204 217 217 211 202 196
335 333 329 327 323 320 313 308 307 285 277 280 277 280 268 267 226 202 192 185 182 188 196 195 190 191 192 189 205 157 220 213 210 222 257 233 190 205 220 216 207 205 198
338 340 337 332 327 328 321 315 310 300 295 273 267 260 284 280 253 221 189 184 165 181 188 190 192 198 195 198 203 201 205 210 224 211 228 228 206 217 198 214 212 205 203